Location: New Plymouth
(39.0670°S, 174.0830°E)
Time: 14:11:44
(UTC+13:00)

Cosmos 1340 Rocket - Pass Details

Date: 24 January 2019
Orbit: 529 x 560 km, 81.2° (Epoch: 16 February)

Event Time Altitude Azimuth Distance (km) Brightness Sun altitude
Exits shadow 23:51:13 40° 170° (S) 816 4.0 -26.8°
Drops below altitude 10° 23:53:51 10° 171° (S) 1,826 6.1 -27.0°
Sets 23:56:03 0° 170° (S) 2,731 7.2 -27.2°
